Regional Weather Roundup
Issued by NWS Newport/Morehead, NC

Current Version | Previous Version | Graphics & Text | Print | Product List | Glossary Off
Versions: 1 2 3 4 5 6 7 8 9 10 11 12 13 14 15 16 17 18 19 20 21 22 23 24 25 26 27 28 29 30 31 32 33 34 35 36 37 38 39 40 41 42 43 44 45 46 47 48 49 50

000
ASUS42 KMHX 180225
RWRMHX
WEATHER ROUNDUP FOR EASTERN NORTH CAROLINA
NATIONAL WEATHER SERVICE NEWPORT/MOREHEAD CITY NC
900 PM EST SUN DEC 17 2017

NOTE: "FAIR" INDICATES FEW OR NO CLOUDS BELOW 12,000 FEET
WITH NO SIGNIFICANT WEATHER AND/OR OBSTRUCTIONS TO VISIBILITY

NCZ015>017-031-032-045>047-102-103-180300-
NORTH COAST

CITY           SKY/WX    TMP DP  RH WIND       PRES   REMARKS
EDENTON        CLOUDY    46  44  94 CALM      30.24F
ELIZABETH CITY CLOUDY    45  43  93 S5        30.23F
KITTY HAWK     LGT RAIN  44  38  79 CALM      30.22F
MANTEO         LGT RAIN  45  41  88 CALM      30.24F

$$

NCZ045>047-081-094-103-104-180300-
CENTRAL COAST

CITY           SKY/WX    TMP DP  RH WIND       PRES   REMARKS
FRISCO         CLOUDY    49  44  83 NW5       30.24S

$$

NCZ095-097-098-100-101-180300-
SOUTHERN COAST

CITY           SKY/WX    TMP DP  RH WIND       PRES   REMARKS
BEAUFORT       CLOUDY    49  44  83 NE6       30.26R
CEDAR ISLAND   NOT AVBL
JACKSONVILLE   CLOUDY    50  48  93 CALM      30.24R
PINEY ISLAND   LGT RAIN N/A N/A N/A CALM      30.27R
WILMINGTON     CLOUDY    54  47  77 CALM      30.24R


$$

NCZ011>013-027>030-043-044-078>080-089-090>093-098-180300-
COASTAL PLAIN

CITY           SKY/WX    TMP DP  RH WIND       PRES   REMARKS
AHOSKIE        CLOUDY    42  41  99 CALM      30.24R
CLINTON        CLOUDY    51  41  70 CALM      30.24R
ELIZABETHTOWN  NOT AVBL
GOLDSBORO      CLOUDY    50  38  63 CALM      30.22S
GREENVILLE     LGT RAIN  46  41  81 CALM      30.25S
HAVELOCK       CLOUDY    49  47  93 NE5       30.26R
KENANSVILLE    CLOUDY    50  41  71 CALM      30.24R
KINSTON        CLOUDY    50  39  66 CALM      30.24F
NEW BERN       CLOUDY    47  46  97 SE5       30.25S
RICHLANDS      LGT RAIN  49  47  93 CALM      30.24F
ROCKY MOUNT    LGT RAIN  45  43  93 CALM      30.24R
WASHINGTON     LGT RAIN  47  38  69 S5        30.24F
WHITEVILLE     CLOUDY    53  45  72 CALM      30.21F

$$

AMZ130-135-150-152-154-156-158-170-250-252-270-ANZ085-086-088-633-658-670-180300-
MARINE OBSERVATIONS

STATION/POSITION TIME  TEMP    WIND        PRES    WAVE   SWELL
                       AIR SEA DIR/SP/G            HT/PER HT/PER
                 (UTC) (F)     (DEG/KT/KT) (MB)    (FT/S) (FT/S)
CHESAPEAKE LIGHT NOT AVBL
64 E VA BEACH    0150   54 58  250/ 12/ 14 1023.7    2/ 3
DUCK             0200   47 52  220/  6/  7 1023.3
2 E DUCK         0200      54                N/A     1/10
OREGON INLET     0200   46 45  230/  3/  3 1023.9
13E OREGON INLT  0148      58                N/A     1/10   2/10
HATTERAS CG      0200   50 52  260/  4/  4 1024.1
DIAMOND BUOY     0210   60     300/  8/ 12 1024.8
CAPE LOOKOUT     0200           20/  5/  6 1024.6
BEAUFORT LAB     0200   49 50   10/  5/  6 1024.4
30 SE NEW RVR IN 0208   61 63  270/  8/ 10 1023.9
30 SE NEW RVR IN 0200      64                N/A     1/10
27 SE WRIGHTSVLE 0208   58 61  280/  6/  6 1024.0
5 SE WRIGHTSVLE  0208   55 56  250/  4/  6 1023.4
225 S CAPE HAT   0150   68 74  240/  6/ 10 1025.1    2/ 8   2/ 8
41 SE CHARLESTON 0210   68     200/ 10/ 12 1022.4

$$




USA.gov is the U.S. government's official web portal to all federal, state and local government web resources and services.